Weather History for Gustavus, AK

Change the Weather History Date:

Wednesday, June 18, 2014

  Actual Average Record
Temperature  
Mean Temperature 50 °F -  
Max Temperature 55 °F 61 °F 82 °F (2004)
Min Temperature 46 °F 45 °F 40 °F (1968)
Degree Days  
Heating Degree Days 14    
Moisture  
Dew Point 44 °F    
Average Humidity 73    
Maximum Humidity 93    
Minimum Humidity 54    
Precipitation  
Precipitation 0.00 in - - ()
Sea Level Pressure  
Sea Level Pressure 29.98 in    
Wind  
Wind Speed 5 mph (SSW)    
Max Wind Speed 10 mph    
Max Gust Speed -    
Visibility 10 miles    
Events      
Averages and records for this station are not official NWS values.
T = Trace of Precipitation, MM = Missing Value Source: NWS Daily Summary

Daily Weather History Graph

Daily Weather History Graph

Search for Another Location

Airport:

Trip Planner

Search our weather history database for the weather conditions in past years. The results will help you decide how hot, cold, wet, or windy it might be!

Date:

Astronomy

Jun. 18, 2014 Rise Set
Actual Time 3:54 AM AKDT 10:13 PM AKDT
Civil Twilight 2:35 AM AKDT 11:33 PM AKDT
Nautical Twilight Sun does not rise Sun does not rise
Astronomical Twilight Sun does not rise Sun does not rise
Moon 12:24 AM AKDT 11:56 AM AKDT
Length of Visible Light 20h 58m
Length of Day
18h 18m
Waning Gibbous, 61% of the Moon is Illuminated
Jun 18
Waning Gibbous
Jun 19
Last Quarter
Jun 27
New
Jul 5
First Quarter
Jul 12
Full

Hourly Weather History & Observations

Time (AKDT) Temp. Dew Point Humidity Pressure Visibility Wind Dir Wind Speed Gust Speed Precip Events Conditions
10:16 AM 53.6 °F 42.8 °F 67% 29.96 in 10.0 mi SE 10.4 mph - N/A   Overcast
10:36 AM 53.6 °F 42.8 °F 67% 29.96 in 10.0 mi ESE 10.4 mph - N/A   Overcast
11:36 AM 51.8 °F 42.8 °F 71% 29.98 in 5.0 mi South 6.9 mph - N/A   Overcast
11:56 AM 51.8 °F 44.6 °F 76% 29.98 in 10.0 mi East 4.6 mph - N/A   Overcast
12:16 PM 53.6 °F 42.8 °F 67% 29.98 in 10.0 mi East 4.6 mph - N/A   Overcast
12:36 PM 53.6 °F 42.8 °F 67% 29.98 in 10.0 mi Calm Calm - N/A   Overcast
12:56 PM 53.6 °F 44.6 °F 72% 29.98 in 10.0 mi NNW 5.8 mph - N/A   Overcast
1:16 PM 53.6 °F 44.6 °F 72% 29.98 in 10.0 mi NW 3.5 mph - N/A   Overcast
1:36 PM 55.4 °F 42.8 °F 63% 29.98 in 10.0 mi SSE 4.6 mph - N/A   Mostly Cloudy
1:56 PM 55.4 °F 41.0 °F 58% 29.98 in 10.0 mi SSE 4.6 mph - N/A   Mostly Cloudy
2:16 PM 51.8 °F 44.6 °F 76% 29.99 in 9.0 mi SSW 5.8 mph - N/A   Overcast
2:36 PM 51.8 °F 42.8 °F 71% 29.99 in 10.0 mi Calm Calm - N/A   Overcast
2:56 PM 53.6 °F 42.8 °F 67% 29.99 in 10.0 mi Calm Calm - N/A   Overcast
3:16 PM 53.6 °F 42.8 °F 67% 29.99 in 10.0 mi Calm Calm - N/A   Overcast
3:36 PM 55.4 °F 44.6 °F 67% 29.98 in 10.0 mi ESE 6.9 mph - N/A   Overcast
3:56 PM 55.4 °F 39.2 °F 54% 29.98 in 10.0 mi Calm Calm - N/A   Overcast
4:16 PM 53.6 °F 39.2 °F 58% 29.98 in 10.0 mi SSW 5.8 mph - N/A   Overcast
4:36 PM 55.4 °F 41.0 °F 58% 29.98 in 10.0 mi Calm Calm - N/A   Scattered Clouds
4:56 PM 55.4 °F 39.2 °F 54% 29.99 in 10.0 mi Calm Calm - N/A   Mostly Cloudy
5:16 PM 53.6 °F 42.8 °F 67% 29.99 in 10.0 mi SSW 6.9 mph - N/A   Overcast
5:36 PM 51.8 °F 44.6 °F 76% 29.99 in 10.0 mi SW 6.9 mph - N/A   Overcast
5:56 PM 51.8 °F 44.6 °F 76% 29.99 in 10.0 mi West 3.5 mph - N/A   Overcast
6:16 PM 51.8 °F 44.6 °F 76% 29.99 in 10.0 mi North 4.6 mph - N/A   Overcast
6:36 PM 51.8 °F 44.6 °F 76% 29.99 in 10.0 mi NNW 3.5 mph - N/A   Mostly Cloudy
6:56 PM 51.8 °F 44.6 °F 76% 29.99 in 10.0 mi NW 4.6 mph - N/A   Overcast
7:16 PM 53.6 °F 46.4 °F 77% 29.99 in 10.0 mi Calm Calm - N/A   Overcast
7:36 PM 53.6 °F 44.6 °F 72% 29.99 in 10.0 mi Calm Calm - N/A   Mostly Cloudy
7:56 PM 53.6 °F 44.6 °F 72% 29.99 in 10.0 mi South 3.5 mph - N/A   Mostly Cloudy
8:16 PM 51.8 °F 44.6 °F 76% 29.99 in 10.0 mi SW 4.6 mph - N/A   Mostly Cloudy
8:36 PM 51.8 °F 44.6 °F 76% 29.99 in 10.0 mi West 3.5 mph - N/A   Overcast
8:56 PM 50.0 °F 44.6 °F 82% 29.99 in 10.0 mi Calm Calm - N/A   Overcast
9:16 PM 50.0 °F 44.6 °F 82% 29.98 in 10.0 mi Calm Calm - N/A   Overcast
9:56 PM 48.2 °F 44.6 °F 87% 29.99 in 10.0 mi Calm Calm - N/A   Mostly Cloudy
10:16 PM 48.2 °F 44.6 °F 87% 29.99 in 10.0 mi Calm Calm - N/A   Overcast
10:36 PM 48.2 °F 44.6 °F 87% 29.99 in 10.0 mi Calm Calm - N/A   Overcast
10:56 PM 48.2 °F 44.6 °F 87% 29.98 in 10.0 mi Calm Calm - N/A   Overcast
11:16 PM 48.2 °F 44.6 °F 87% 29.98 in 10.0 mi Calm Calm - N/A   Mostly Cloudy
11:36 PM 46.4 °F 44.6 °F 93% 29.97 in 10.0 mi Calm Calm - N/A   Mostly Cloudy
11:56 PM 46.4 °F 42.8 °F 87% 29.97 in 7.0 mi Calm Calm - N/A   Overcast